Cloud_Cover
0 0 0 0 0 0 0 0 0 16 0 33 48 42 36 92 100 81 100 100 100 100 100 73 100 100 100 50 5 84 100 100 100 100 100 100 100 100 100 100 100 16 5
0 0 0 0 0 0 0 0 0 0 1 25 36 3 1 17 80 61 99 100 100 100 100 88 100 100 100 100 8 39 100 100 100 100 100 100 95 99 100 100 100 46 14
0 0 0 19 17 13 1 0 0 6 5 95 98 100 96 57 100 98 100 100 100 99 100 99 100 100 100 100 57 5 100 100 100 100 100 100 100 54 100 100 100 100 88
0 0 0 90 50 32 0 0 0 28 58 100 100 100 100 100 100 69 100 100 100 100 100 100 100 100 100 100 100 100 89 97 100 100 100 100 100 100 100 100 100 100 100
0 4 0 0 1 29 17 0 7 71 65 100 100 100 100 100 72 100 100 100 100 100 100 100 100 100 100 100 100 100 100 100 100 100 100 100 100 100 100 100 100 100 100
4 0 0 6 15 51 91 2 60 100 97 100 100 100 100 100 100 97 86 100 100 100 100 98 100 100 100 100 100 100 100 100 100 100 100 100 100 100 100 100 100 100 100
5 5 0 23 22 10 100 100 100 100 100 100 100 100 100 100 100 100 100 100 100 100 100 100 100 100 100 100 100 100 100 100 100 100 100 100 100 100 100 100 100 92 100
0 0 0 14 36 1 83 100 100 100 100 100 100 100 100 100 100 100 100 100 100 100 100 100 100 100 100 100 100 100 100 100 100 100 100 100 100 100 100 100 100 100 100
0 0 0 98 100 100 100 100 100 100 100 100 100 100 100 100 100 100 100 100 100 100 100 100 100 100 100 100 100 100 100 100 100 100 100 100 100 100 100 100 100 95 100
0 0 0 0 79 100 100 100 100 100 100 100 100 100 100 100 100 100 100 100 100 100 100 100 100 100 100 100 100 100 100 100 100 100 100 100 100 100 100 100 95 96 100
0 0 0 0 0 69 100 100 100 100 100 100 100 100 100 100 100 100 100 100 100 100 100 100 100 100 100 100 100 100 100 100 100 100 100 100 100 100 100 100 99 100 100
0 0 0 0 0 37 100 100 100 100 100 100 100 100 100 100 100 100 100 100 100 100 100 100 100 100 100 100 100 100 100 100 100 100 100 100 100 100 100 100 100 100 100
0 0 0 0 0 0 3 97 100 100 100 100 100 100 100 100 100 100 100 100 100 100 100 100 100 100 100 100 100 100 100 100 100 89 95 99 80 76 97 100 100 100 100
3 2 0 0 0 0 0 0 32 100 100 100 100 100 100 100 100 100 100 100 100 100 100 100 100 100 100 100 100 99 100 100 100 99 79 75 70 59 97 99 100 100 100
9 5 5 0 0 0 0 0 0 0 58 100 100 100 100 100 100 100 100 100 100 100 100 100 100 100 100 100 100 100 100 100 100 100 100 100 100 100 100 100 100 100 100
100 64 5 5 0 0 0 0 0 0 4 97 100 100 100 100 100 100 100 100 100 100 100 100 100 100 100 100 100 100 100 100 100 100 100 100 100 100 100 100 100 100 84
100 97 72 80 38 8 0 0 31 26 54 47 100 100 100 100 100 100 100 100 100 100 100 100 100 100 100 100 100 100 100 100 100 100 100 100 100 100 100 100 100 100 100
100 99 98 92 29 13 32 11 11 68 100 98 99 100 100 100 100 100 100 100 100 100 100 100 100 100 100 100 100 100 100 100 100 100 100 100 100 100 100 100 100 100 100
100 100 98 100 100 99 28 5 0 26 100 100 76 90 100 100 100 100 100 100 100 100 100 100 100 100 100 100 100 100 100 100 100 100 100 100 99 100 100 100 100 100 100
100 100 100 100 94 100 80 14 2 4 100 100 100 100 100 100 100 100 100 100 100 100 100 100 100 100 100 100 100 100 100 100 100 100 100 100 100 100 100 100 100 100 100
5 81 100 100 100 100 100 96 25 12 29 100 100 100 100 100 100 100 100 100 100 100 100 100 100 100 100 100 100 100 100 100 100 100 100 100 100 100 100 100 100 100 100
5 18 100 100 100 100 88 100 62 83 100 100 100 100 100 100 100 100 100 100 100 100 100 100 100 100 100 100 100 100 100 100 100 100 100 100 100 100 100 100 100 100 100
1 5 90 100 100 100 100 100 100 100 100 100 100 100 87 94 96 53 100 100 100 100 100 100 100 100 100 100 100 100 100 100 100 100 100 100 100 100 100 100 100 100 100
21 98 100 100 100 100 100 100 100 100 100 100 100 100 100 93 33 45 31 80 89 100 100 100 100 100 100 100 100 100 100 100 100 100 100 100 100 100 100 100 100 100 100
100 100 100 100 100 100 100 100 100 100 100 100 98 98 93 96 100 97 100 100 85 81 100 100 100 100 100 100 100 100 100 100 100 100 100 100 100 100 100 100 100 100 100
94 95 100 100 100 100 100 100 100 100 100 100 100 100 100 100 100 100 100 100 100 100 100 100 95 100 100 100 100 99 97 98 100 100 100 100 100 100 100 100 100 100 100